owner,sensor,date,latitude,longitude,vertical_datum,wind_speed,wind_to_direction,wind_speed_of_gust,qcFlag 
COMPS,ioos:station:USF.COMPS:C12:1,2017-01-01T00:05:00Z,27.4980,-83.7220,3.0,8.02,153.59,10.09,'1111122,1111122,1111122' 
COMPS,ioos:station:USF.COMPS:C12:1,2017-01-01T00:35:00Z,27.4980,-83.7220,3.0,8.14,153.96,9.79,'1111122,1111122,1111122' 
COMPS,ioos:station:USF.COMPS:C12:1,2017-01-01T01:05:00Z,27.4980,-83.7220,3.0,8.31,153.26,10.53,'1111122,1111122,1111122' 
COMPS,ioos:station:USF.COMPS:C12:1,2017-01-01T01:35:00Z,27.4980,-83.7220,3.0,8.56,156.78,10.61,'1111122,1111122,1111122' 
COMPS,ioos:station:USF.COMPS:C12:1,2017-01-01T02:05:00Z,27.4980,-83.7220,3.0,8.83,158.34,11.46,'1111122,1111122,1111122' 
COMPS,ioos:station:USF.COMPS:C12:1,2017-01-01T02:35:00Z,27.4980,-83.7220,3.0,8.14,159.29,9.86,'1111122,1111122,1111122' 
COMPS,ioos:station:USF.COMPS:C12:1,2017-01-01T03:05:00Z,27.4980,-83.7220,3.0,8.06,156.93,9.59,'1111122,1111122,1111122' 
COMPS,ioos:station:USF.COMPS:C12:1,2017-01-01T03:35:00Z,27.4980,-83.7220,3.0,7.14,154.41,8.83,'1111122,1111122,1111122' 
COMPS,ioos:station:USF.COMPS:C12:1,2017-01-01T04:05:00Z,27.4980,-83.7220,3.0,8.42,157.05,10.52,'1111122,1111122,1111122' 
COMPS,ioos:station:USF.COMPS:C12:1,2017-01-01T04:35:00Z,27.4980,-83.7220,3.0,8.38,160.48,10.48,'1111122,1111122,1111122' 
COMPS,ioos:station:USF.COMPS:C12:1,2017-01-01T05:05:00Z,27.4980,-83.7220,3.0,7.56,157.39,9.54,'1111122,1111122,1111122' 
COMPS,ioos:station:USF.COMPS:C12:1,2017-01-01T05:35:00Z,27.4980,-83.7220,3.0,7.2,155.27,8.88,'1111122,1111122,1111122' 
COMPS,ioos:station:USF.COMPS:C12:1,2017-01-01T06:05:00Z,27.4980,-83.7220,3.0,7.36,149.38,8.57,'1111122,1111122,1111122' 
COMPS,ioos:station:USF.COMPS:C12:1,2017-01-01T06:35:00Z,27.4980,-83.7220,3.0,7.23,145.89,8.88,'1111122,1111122,1111122' 
COMPS,ioos:station:USF.COMPS:C12:1,2017-01-01T07:05:00Z,27.4980,-83.7220,3.0,7.65,149.19,9.16,'1111122,1111122,1111122' 
COMPS,ioos:station:USF.COMPS:C12:1,2017-01-01T07:35:00Z,27.4980,-83.7220,3.0,7.6,143.7,9.87,'1111122,1111122,1111122' 
COMPS,ioos:station:USF.COMPS:C12:1,2017-01-01T08:05:00Z,27.4980,-83.7220,3.0,7.47,142.11,9.1,'1111122,1111122,1111122' 
COMPS,ioos:station:USF.COMPS:C12:1,2017-01-01T08:35:00Z,27.4980,-83.7220,3.0,7.26,140.99,9.06,'1111122,1111122,1111122' 
COMPS,ioos:station:USF.COMPS:C12:1,2017-01-01T09:05:00Z,27.4980,-83.7220,3.0,7.26,138.44,8.84,'1111122,1111122,1111122' 
COMPS,ioos:station:USF.COMPS:C12:1,2017-01-01T09:35:00Z,27.4980,-83.7220,3.0,7.39,137.3,8.99,'1111122,1111122,1111122' 
COMPS,ioos:station:USF.COMPS:C12:1,2017-01-01T10:05:00Z,27.4980,-83.7220,3.0,7.71,137.17,9.27,'1111122,1111122,1111122' 
COMPS,ioos:station:USF.COMPS:C12:1,2017-01-01T10:35:00Z,27.4980,-83.7220,3.0,8.1,137.74,9.81,'1111122,1111122,1111122' 
COMPS,ioos:station:USF.COMPS:C12:1,2017-01-01T11:05:00Z,27.4980,-83.7220,3.0,7.71,141.28,9.26,'1111122,1111122,1111122' 
COMPS,ioos:station:USF.COMPS:C12:1,2017-01-01T11:35:00Z,27.4980,-83.7220,3.0,7.11,139.43,8.84,'1111122,1111122,1111122' 
COMPS,ioos:station:USF.COMPS:C12:1,2017-01-01T12:05:00Z,27.4980,-83.7220,3.0,7.42,140.48,9.04,'1111122,1111122,1111122' 
COMPS,ioos:station:USF.COMPS:C12:1,2017-01-01T12:35:00Z,27.4980,-83.7220,3.0,7.37,139.06,9.24,'1111122,1111122,1111122' 
COMPS,ioos:station:USF.COMPS:C12:1,2017-01-01T13:05:00Z,27.4980,-83.7220,3.0,7.45,139.06,9.1,'1111122,1111122,1111122' 
COMPS,ioos:station:USF.COMPS:C12:1,2017-01-01T13:35:00Z,27.4980,-83.7220,3.0,7.19,140.1,8.69,'1111122,1111122,1111122' 
COMPS,ioos:station:USF.COMPS:C12:1,2017-01-01T14:05:00Z,27.4980,-83.7220,3.0,7.56,140.83,9.1,'1111122,1111122,1111122' 
COMPS,ioos:station:USF.COMPS:C12:1,2017-01-01T14:35:00Z,27.4980,-83.7220,3.0,7.62,142.9,9.01,'1111122,1111122,1111122' 
COMPS,ioos:station:USF.COMPS:C12:1,2017-01-01T15:05:00Z,27.4980,-83.7220,3.0,7.48,140.12,8.97,'1111122,1111122,1111122' 
COMPS,ioos:station:USF.COMPS:C12:1,2017-01-01T15:35:00Z,27.4980,-83.7220,3.0,7.37,138.53,8.61,'1111122,1111122,1111122' 
COMPS,ioos:station:USF.COMPS:C12:1,2017-01-01T16:05:00Z,27.4980,-83.7220,3.0,6.49,134.23,8.5,'1111122,1111122,1111122' 
COMPS,ioos:station:USF.COMPS:C12:1,2017-01-01T16:35:00Z,27.4980,-83.7220,3.0,6.86,133.02,8.33,'1111122,1111122,1111122' 
COMPS,ioos:station:USF.COMPS:C12:1,2017-01-01T17:05:00Z,27.4980,-83.7220,3.0,7.05,136.65,8.68,'1111122,1111122,1111122' 
COMPS,ioos:station:USF.COMPS:C12:1,2017-01-01T17:35:00Z,27.4980,-83.7220,3.0,6.51,135.62,8.07,'1111122,1111122,1111122' 
COMPS,ioos:station:USF.COMPS:C12:1,2017-01-01T18:05:00Z,27.4980,-83.7220,3.0,6.47,134.44,8.36,'1111122,1111122,1111122' 
COMPS,ioos:station:USF.COMPS:C12:1,2017-01-01T18:35:00Z,27.4980,-83.7220,3.0,7.35,136.73,8.71,'1111122,1111122,1111122' 
COMPS,ioos:station:USF.COMPS:C12:1,2017-01-01T19:05:00Z,27.4980,-83.7220,3.0,7.02,134.09,8.53,'1111122,1111122,1111122' 
COMPS,ioos:station:USF.COMPS:C12:1,2017-01-01T19:35:00Z,27.4980,-83.7220,3.0,6.51,133.04,7.83,'1111122,1111122,1111122' 
COMPS,ioos:station:USF.COMPS:C12:1,2017-01-01T20:05:00Z,27.4980,-83.7220,3.0,6.01,135.72,7.05,'1111122,1111122,1111122' 
COMPS,ioos:station:USF.COMPS:C12:1,2017-01-01T20:35:00Z,27.4980,-83.7220,3.0,6.31,137.91,7.71,'1111122,1111122,1111122' 
COMPS,ioos:station:USF.COMPS:C12:1,2017-01-01T21:05:00Z,27.4980,-83.7220,3.0,5.69,140.9,7.36,'1111122,1111122,1111122' 
COMPS,ioos:station:USF.COMPS:C12:1,2017-01-01T21:35:00Z,27.4980,-83.7220,3.0,5.26,138.53,6.63,'1111122,1111122,1111122' 
COMPS,ioos:station:USF.COMPS:C12:1,2017-01-01T22:05:00Z,27.4980,-83.7220,3.0,5.65,137.11,6.96,'1111122,1111122,1111122' 
COMPS,ioos:station:USF.COMPS:C12:1,2017-01-01T22:35:00Z,27.4980,-83.7220,3.0,5.68,135.96,6.88,'1111122,1111122,1111122' 
COMPS,ioos:station:USF.COMPS:C12:1,2017-01-01T23:05:00Z,27.4980,-83.7220,3.0,5.56,138.31,6.92,'1111122,1111122,1111122' 
COMPS,ioos:station:USF.COMPS:C12:1,2017-01-01T23:35:00Z,27.4980,-83.7220,3.0,5.58,136.76,6.67,'1111122,1111122,1111122' 
COMPS,ioos:station:USF.COMPS:C12:1,2017-01-02T00:05:00Z,27.4980,-83.7220,3.0,5.1,133.3,6.39,'1111122,1111122,1111122' 
COMPS,ioos:station:USF.COMPS:C12:1,2017-01-02T00:35:00Z,27.4980,-83.7220,3.0,5.05,136.86,6.02,'1111122,1111122,1111122' 
COMPS,ioos:station:USF.COMPS:C12:1,2017-01-02T01:05:00Z,27.4980,-83.7220,3.0,4.42,144.16,5.48,'1111122,1111122,1111122' 
COMPS,ioos:station:USF.COMPS:C12:1,2017-01-02T01:35:00Z,27.4980,-83.7220,3.0,4.56,143.77,5.38,'1111122,1111122,1111122' 
COMPS,ioos:station:USF.COMPS:C12:1,2017-01-02T02:05:00Z,27.4980,-83.7220,3.0,4.43,150.08,5.57,'1111122,1111122,1111122' 
COMPS,ioos:station:USF.COMPS:C12:1,2017-01-02T02:35:00Z,27.4980,-83.7220,3.0,4.48,147.81,5.38,'1111122,1111122,1111122' 
COMPS,ioos:station:USF.COMPS:C12:1,2017-01-02T03:05:00Z,27.4980,-83.7220,3.0,4.07,155.26,4.85,'1111122,1111122,1111122' 
COMPS,ioos:station:USF.COMPS:C12:1,2017-01-02T03:35:00Z,27.4980,-83.7220,3.0,3.58,157.16,4.46,'1111122,1111122,1111122' 
COMPS,ioos:station:USF.COMPS:C12:1,2017-01-02T04:05:00Z,27.4980,-83.7220,3.0,4.28,153.28,5.11,'1111122,1111122,1111122' 
COMPS,ioos:station:USF.COMPS:C12:1,2017-01-02T04:35:00Z,27.4980,-83.7220,3.0,4.65,151.94,5.82,'1111122,1111122,1111122' 
COMPS,ioos:station:USF.COMPS:C12:1,2017-01-02T05:05:00Z,27.4980,-83.7220,3.0,4.71,151.42,5.74,'1111122,1111122,1111122' 
COMPS,ioos:station:USF.COMPS:C12:1,2017-01-02T05:35:00Z,27.4980,-83.7220,3.0,4.45,155.31,5.38,'1111122,1111122,1111122' 
COMPS,ioos:station:USF.COMPS:C12:1,2017-01-02T06:05:00Z,27.4980,-83.7220,3.0,4.84,158.26,5.78,'1111122,1111122,1111122' 
COMPS,ioos:station:USF.COMPS:C12:1,2017-01-02T06:35:00Z,27.4980,-83.7220,3.0,4.7,155.29,5.7,'1111122,1111122,1111122' 
COMPS,ioos:station:USF.COMPS:C12:1,2017-01-02T07:05:00Z,27.4980,-83.7220,3.0,5.24,153.79,6.46,'1111122,1111122,1111122' 
COMPS,ioos:station:USF.COMPS:C12:1,2017-01-02T07:35:00Z,27.4980,-83.7220,3.0,5.5,154.97,6.76,'1111122,1111122,1111122' 
COMPS,ioos:station:USF.COMPS:C12:1,2017-01-02T08:05:00Z,27.4980,-83.7220,3.0,4.97,150.87,6.04,'1111122,1111122,1111122' 
COMPS,ioos:station:USF.COMPS:C12:1,2017-01-02T08:35:00Z,27.4980,-83.7220,3.0,5.92,139.24,7.49,'1111122,1111122,1111122' 
COMPS,ioos:station:USF.COMPS:C12:1,2017-01-02T09:05:00Z,27.4980,-83.7220,3.0,5.83,138.58,6.97,'1111122,1111122,1111122' 
COMPS,ioos:station:USF.COMPS:C12:1,2017-01-02T09:35:00Z,27.4980,-83.7220,3.0,5.29,142.95,6.67,'1111122,1111122,1111122' 
COMPS,ioos:station:USF.COMPS:C12:1,2017-01-02T10:05:00Z,27.4980,-83.7220,3.0,5.88,141.76,7.27,'1111122,1111122,1111122' 
COMPS,ioos:station:USF.COMPS:C12:1,2017-01-02T10:35:00Z,27.4980,-83.7220,3.0,5.23,144.76,6.29,'1111122,1111122,1111122' 
COMPS,ioos:station:USF.COMPS:C12:1,2017-01-02T11:05:00Z,27.4980,-83.7220,3.0,5.1,141.63,6.31,'1111122,1111122,1111122' 
COMPS,ioos:station:USF.COMPS:C12:1,2017-01-02T11:35:00Z,27.4980,-83.7220,3.0,5.17,132.14,6.68,'1111122,1111122,1111122' 
COMPS,ioos:station:USF.COMPS:C12:1,2017-01-02T12:05:00Z,27.4980,-83.7220,3.0,5.74,129.65,6.93,'1111122,1111122,1111122' 
COMPS,ioos:station:USF.COMPS:C12:1,2017-01-02T12:35:00Z,27.4980,-83.7220,3.0,5.99,135.54,7.25,'1111122,1111122,1111122' 
COMPS,ioos:station:USF.COMPS:C12:1,2017-01-02T13:05:00Z,27.4980,-83.7220,3.0,5.24,129.97,6.29,'1111122,1111122,1111122' 
COMPS,ioos:station:USF.COMPS:C12:1,2017-01-02T13:35:00Z,27.4980,-83.7220,3.0,5.03,127.15,6.13,'1111122,1111122,1111122' 
COMPS,ioos:station:USF.COMPS:C12:1,2017-01-02T14:05:00Z,27.4980,-83.7220,3.0,5.6,133.27,6.97,'1111122,1111122,1111122' 
COMPS,ioos:station:USF.COMPS:C12:1,2017-01-02T14:35:00Z,27.4980,-83.7220,3.0,4.76,135.68,6.3,'1111122,1111122,1111122' 
COMPS,ioos:station:USF.COMPS:C12:1,2017-01-02T15:05:00Z,27.4980,-83.7220,3.0,6.01,133.46,7.4,'1111122,1111122,1111122' 
COMPS,ioos:station:USF.COMPS:C12:1,2017-01-02T15:35:00Z,27.4980,-83.7220,3.0,7.27,133.22,9.07,'1111122,1111122,1111122' 
COMPS,ioos:station:USF.COMPS:C12:1,2017-01-02T16:05:00Z,27.4980,-83.7220,3.0,7.4,135.12,9.65,'1111122,1111122,1111122' 
COMPS,ioos:station:USF.COMPS:C12:1,2017-01-02T16:35:00Z,27.4980,-83.7220,3.0,6.91,134.45,8.29,'1111122,1111122,1111122' 
COMPS,ioos:station:USF.COMPS:C12:1,2017-01-02T17:05:00Z,27.4980,-83.7220,3.0,6.19,134.07,7.69,'1111122,1111122,1111122' 
COMPS,ioos:station:USF.COMPS:C12:1,2017-01-02T17:35:00Z,27.4980,-83.7220,3.0,7.11,131.72,8.96,'1111122,1111122,1111122' 
COMPS,ioos:station:USF.COMPS:C12:1,2017-01-02T18:05:00Z,27.4980,-83.7220,3.0,7.39,134.06,9.35,'1111122,1111122,1111122' 
COMPS,ioos:station:USF.COMPS:C12:1,2017-01-02T18:35:00Z,27.4980,-83.7220,3.0,6.76,138.63,8.4,'1111122,1111122,1111122' 
COMPS,ioos:station:USF.COMPS:C12:1,2017-01-02T19:05:00Z,27.4980,-83.7220,3.0,6.06,146.85,7.68,'1111122,1111122,1111122' 
COMPS,ioos:station:USF.COMPS:C12:1,2017-01-02T19:35:00Z,27.4980,-83.7220,3.0,5.12,152.24,6.1,'1111122,1111122,1111122' 
COMPS,ioos:station:USF.COMPS:C12:1,2017-01-02T20:05:00Z,27.4980,-83.7220,3.0,5.62,147.66,7.0,'1111122,1111122,1111122' 
COMPS,ioos:station:USF.COMPS:C12:1,2017-01-02T20:35:00Z,27.4980,-83.7220,3.0,5.38,146.29,6.47,'1111122,1111122,1111122' 
COMPS,ioos:station:USF.COMPS:C12:1,2017-01-02T21:05:00Z,27.4980,-83.7220,3.0,5.62,139.19,6.68,'1111122,1111122,1111122' 
COMPS,ioos:station:USF.COMPS:C12:1,2017-01-02T21:35:00Z,27.4980,-83.7220,3.0,6.12,143.41,7.12,'1111122,1111122,1111122' 
COMPS,ioos:station:USF.COMPS:C12:1,2017-01-02T22:05:00Z,27.4980,-83.7220,3.0,6.54,146.03,7.92,'1111122,1111122,1111122' 
COMPS,ioos:station:USF.COMPS:C12:1,2017-01-02T22:35:00Z,27.4980,-83.7220,3.0,6.1,146.59,7.31,'1111122,1111122,1111122' 
COMPS,ioos:station:USF.COMPS:C12:1,2017-01-02T23:05:00Z,27.4980,-83.7220,3.0,6.61,150.4,8.0,'1111122,1111122,1111122' 
COMPS,ioos:station:USF.COMPS:C12:1,2017-01-02T23:35:00Z,27.4980,-83.7220,3.0,4.99,151.49,6.69,'1111122,1111122,1111122' 
COMPS,ioos:station:USF.COMPS:C12:1,2017-01-03T00:05:00Z,27.4980,-83.7220,3.0,4.36,154.3,5.31,'1111122,1111122,1111122' 
COMPS,ioos:station:USF.COMPS:C12:1,2017-01-03T00:35:00Z,27.4980,-83.7220,3.0,5.0,159.93,5.93,'1111122,1111122,1111122' 
COMPS,ioos:station:USF.COMPS:C12:1,2017-01-03T01:05:00Z,27.4980,-83.7220,3.0,5.18,168.18,6.33,'1111122,1111122,1111122' 
COMPS,ioos:station:USF.COMPS:C12:1,2017-01-03T01:35:00Z,27.4980,-83.7220,3.0,5.17,165.43,6.08,'1111122,1111122,1111122' 
COMPS,ioos:station:USF.COMPS:C12:1,2017-01-03T02:05:00Z,27.4980,-83.7220,3.0,6.32,163.16,7.95,'1111122,1111122,1111122' 
COMPS,ioos:station:USF.COMPS:C12:1,2017-01-03T02:35:00Z,27.4980,-83.7220,3.0,6.27,170.69,8.01,'1111122,1111122,1111122' 
COMPS,ioos:station:USF.COMPS:C12:1,2017-01-03T03:05:00Z,27.4980,-83.7220,3.0,6.93,167.79,8.73,'1111122,1111122,1111122' 
COMPS,ioos:station:USF.COMPS:C12:1,2017-01-03T03:35:00Z,27.4980,-83.7220,3.0,6.57,164.21,8.15,'1111122,1111122,1111122' 
COMPS,ioos:station:USF.COMPS:C12:1,2017-01-03T04:05:00Z,27.4980,-83.7220,3.0,5.56,164.88,6.58,'1111122,1111122,1111122' 
COMPS,ioos:station:USF.COMPS:C12:1,2017-01-03T04:35:00Z,27.4980,-83.7220,3.0,5.62,161.28,6.88,'1111122,1111122,1111122' 
COMPS,ioos:station:USF.COMPS:C12:1,2017-01-03T05:05:00Z,27.4980,-83.7220,3.0,6.5,159.15,8.23,'1111122,1111122,1111122' 
COMPS,ioos:station:USF.COMPS:C12:1,2017-01-03T05:35:00Z,27.4980,-83.7220,3.0,5.88,164.14,7.14,'1111122,1111122,1111122' 
COMPS,ioos:station:USF.COMPS:C12:1,2017-01-03T06:05:00Z,27.4980,-83.7220,3.0,6.39,168.7,7.72,'1111122,1111122,1111122' 
COMPS,ioos:station:USF.COMPS:C12:1,2017-01-03T06:35:00Z,27.4980,-83.7220,3.0,6.17,163.68,7.47,'1111122,1111122,1111122' 
COMPS,ioos:station:USF.COMPS:C12:1,2017-01-03T07:05:00Z,27.4980,-83.7220,3.0,5.71,161.8,6.84,'1111122,1111122,1111122' 
COMPS,ioos:station:USF.COMPS:C12:1,2017-01-03T07:35:00Z,27.4980,-83.7220,3.0,5.56,168.55,6.66,'1111122,1111122,1111122' 
COMPS,ioos:station:USF.COMPS:C12:1,2017-01-03T08:05:00Z,27.4980,-83.7220,3.0,5.64,163.96,7.68,'1111122,1111122,1111122' 
COMPS,ioos:station:USF.COMPS:C12:1,2017-01-03T08:35:00Z,27.4980,-83.7220,3.0,5.76,169.57,7.29,'1111122,1111122,1111122' 
COMPS,ioos:station:USF.COMPS:C12:1,2017-01-03T09:05:00Z,27.4980,-83.7220,3.0,5.02,170.9,5.97,'1111122,1111122,1111122' 
COMPS,ioos:station:USF.COMPS:C12:1,2017-01-03T09:35:00Z,27.4980,-83.7220,3.0,6.21,160.52,7.69,'1111122,1111122,1111122' 
COMPS,ioos:station:USF.COMPS:C12:1,2017-01-03T10:05:00Z,27.4980,-83.7220,3.0,6.2,165.25,7.42,'1111122,1111122,1111122' 
COMPS,ioos:station:USF.COMPS:C12:1,2017-01-03T10:35:00Z,27.4980,-83.7220,3.0,6.5,165.34,7.96,'1111122,1111122,1111122' 
COMPS,ioos:station:USF.COMPS:C12:1,2017-01-03T11:05:00Z,27.4980,-83.7220,3.0,5.58,164.28,7.45,'1111122,1111122,1111122' 
COMPS,ioos:station:USF.COMPS:C12:1,2017-01-03T11:35:00Z,27.4980,-83.7220,3.0,3.92,168.71,5.3,'1111122,1111122,1111122' 
COMPS,ioos:station:USF.COMPS:C12:1,2017-01-03T12:05:00Z,27.4980,-83.7220,3.0,3.15,176.71,3.83,'1111122,1111122,1111122' 
COMPS,ioos:station:USF.COMPS:C12:1,2017-01-03T12:35:00Z,27.4980,-83.7220,3.0,2.97,172.41,3.85,'1111122,1111122,1111122' 
COMPS,ioos:station:USF.COMPS:C12:1,2017-01-03T13:05:00Z,27.4980,-83.7220,3.0,3.04,166.61,3.61,'1111122,1111122,1111122' 
COMPS,ioos:station:USF.COMPS:C12:1,2017-01-03T13:35:00Z,27.4980,-83.7220,3.0,2.91,156.53,3.47,'1111122,1111122,1111122' 
COMPS,ioos:station:USF.COMPS:C12:1,2017-01-03T14:05:00Z,27.4980,-83.7220,3.0,2.71,163.81,3.4,'1111122,1111122,1111122' 
COMPS,ioos:station:USF.COMPS:C12:1,2017-01-03T14:35:00Z,27.4980,-83.7220,3.0,3.2,171.05,3.96,'1111122,1111122,1111122' 
COMPS,ioos:station:USF.COMPS:C12:1,2017-01-03T15:05:00Z,27.4980,-83.7220,3.0,3.79,174.5,4.78,'1111122,1111122,1111122' 
COMPS,ioos:station:USF.COMPS:C12:1,2017-01-03T15:35:00Z,27.4980,-83.7220,3.0,2.78,186.71,3.34,'1111122,1111122,1111122' 
COMPS,ioos:station:USF.COMPS:C12:1,2017-01-03T16:05:00Z,27.4980,-83.7220,3.0,3.36,197.89,4.14,'1111122,1111122,1111122' 
COMPS,ioos:station:USF.COMPS:C12:1,2017-01-03T16:35:00Z,27.4980,-83.7220,3.0,2.99,196.63,3.58,'1111122,1111122,1111122' 
COMPS,ioos:station:USF.COMPS:C12:1,2017-01-03T17:05:00Z,27.4980,-83.7220,3.0,2.87,196.75,3.42,'1111122,1111122,1111122' 
COMPS,ioos:station:USF.COMPS:C12:1,2017-01-03T17:35:00Z,27.4980,-83.7220,3.0,2.35,187.9,2.85,'1111122,1111122,1111122' 
COMPS,ioos:station:USF.COMPS:C12:1,2017-01-03T18:05:00Z,27.4980,-83.7220,3.0,2.81,184.87,3.39,'1111122,1111122,1111122' 
COMPS,ioos:station:USF.COMPS:C12:1,2017-01-03T18:35:00Z,27.4980,-83.7220,3.0,3.02,195.09,3.61,'1111122,1111122,1111122' 
COMPS,ioos:station:USF.COMPS:C12:1,2017-01-03T19:05:00Z,27.4980,-83.7220,3.0,3.23,194.05,3.86,'1111122,1111122,1111122' 
COMPS,ioos:station:USF.COMPS:C12:1,2017-01-03T19:35:00Z,27.4980,-83.7220,3.0,2.96,211.5,3.51,'1111122,1111122,1111122' 
COMPS,ioos:station:USF.COMPS:C12:1,2017-01-03T20:05:00Z,27.4980,-83.7220,3.0,2.97,211.28,3.55,'1111122,1111122,1111122' 
COMPS,ioos:station:USF.COMPS:C12:1,2017-01-03T20:35:00Z,27.4980,-83.7220,3.0,2.74,216.33,3.23,'1111122,1111122,1111122' 
COMPS,ioos:station:USF.COMPS:C12:1,2017-01-03T21:05:00Z,27.4980,-83.7220,3.0,2.42,195.91,3.04,'1111122,1111122,1111122' 
COMPS,ioos:station:USF.COMPS:C12:1,2017-01-03T21:35:00Z,27.4980,-83.7220,3.0,2.77,184.16,3.51,'1111122,1111122,1111122' 
COMPS,ioos:station:USF.COMPS:C12:1,2017-01-03T22:05:00Z,27.4980,-83.7220,3.0,2.45,216.58,3.1,'1111122,1111122,1111122' 
COMPS,ioos:station:USF.COMPS:C12:1,2017-01-03T22:35:00Z,27.4980,-83.7220,3.0,2.4,220.33,2.93,'1111122,1111122,1111122' 
COMPS,ioos:station:USF.COMPS:C12:1,2017-01-03T23:05:00Z,27.4980,-83.7220,3.0,2.63,205.82,3.27,'1111122,1111122,1111122' 
COMPS,ioos:station:USF.COMPS:C12:1,2017-01-03T23:35:00Z,27.4980,-83.7220,3.0,2.65,213.42,3.23,'1111122,1111122,1111122' 
COMPS,ioos:station:USF.COMPS:C12:1,2017-01-04T00:05:00Z,27.4980,-83.7220,3.0,2.99,211.7,3.63,'1111122,1111122,1111122' 
COMPS,ioos:station:USF.COMPS:C12:1,2017-01-04T00:35:00Z,27.4980,-83.7220,3.0,2.64,212.14,3.36,'1111122,1111122,1111122' 
COMPS,ioos:station:USF.COMPS:C12:1,2017-01-04T01:05:00Z,27.4980,-83.7220,3.0,3.06,221.51,3.63,'1111122,1111122,1111122' 
COMPS,ioos:station:USF.COMPS:C12:1,2017-01-04T01:35:00Z,27.4980,-83.7220,3.0,2.88,233.13,3.49,'1111122,1111122,1111122' 
COMPS,ioos:station:USF.COMPS:C12:1,2017-01-04T02:05:00Z,27.4980,-83.7220,3.0,2.61,214.73,3.12,'1111122,1111122,1111122' 
COMPS,ioos:station:USF.COMPS:C12:1,2017-01-04T02:35:00Z,27.4980,-83.7220,3.0,2.88,205.74,3.38,'1111122,1111122,1111122' 
COMPS,ioos:station:USF.COMPS:C12:1,2017-01-04T03:05:00Z,27.4980,-83.7220,3.0,2.81,224.13,3.51,'1111122,1111122,1111122' 
COMPS,ioos:station:USF.COMPS:C12:1,2017-01-04T03:35:00Z,27.4980,-83.7220,3.0,2.96,209.26,3.71,'1111122,1111122,1111122' 
COMPS,ioos:station:USF.COMPS:C12:1,2017-01-04T04:05:00Z,27.4980,-83.7220,3.0,3.09,225.57,3.99,'1111122,1111122,1111122' 
COMPS,ioos:station:USF.COMPS:C12:1,2017-01-04T04:35:00Z,27.4980,-83.7220,3.0,2.64,241.78,3.29,'1111122,1111122,1111122' 
COMPS,ioos:station:USF.COMPS:C12:1,2017-01-04T05:05:00Z,27.4980,-83.7220,3.0,2.87,215.93,3.37,'1111122,1111122,1111122' 
COMPS,ioos:station:USF.COMPS:C12:1,2017-01-04T05:35:00Z,27.4980,-83.7220,3.0,2.54,226.78,3.0,'1111122,1111122,1111122' 
COMPS,ioos:station:USF.COMPS:C12:1,2017-01-04T06:05:00Z,27.4980,-83.7220,3.0,1.72,197.43,2.55,'1111122,1111122,1111122' 
COMPS,ioos:station:USF.COMPS:C12:1,2017-01-04T06:35:00Z,27.4980,-83.7220,3.0,1.76,244.4,2.89,'1111122,1111122,1111122' 
COMPS,ioos:station:USF.COMPS:C12:1,2017-01-04T07:05:00Z,27.4980,-83.7220,3.0,2.33,272.83,3.36,'1111122,1111122,1111122' 
COMPS,ioos:station:USF.COMPS:C12:1,2017-01-04T07:35:00Z,27.4980,-83.7220,3.0,1.92,278.72,2.39,'1111122,1111122,1111122' 
COMPS,ioos:station:USF.COMPS:C12:1,2017-01-04T08:05:00Z,27.4980,-83.7220,3.0,2.81,292.38,4.12,'1111122,1111122,1111122' 
COMPS,ioos:station:USF.COMPS:C12:1,2017-01-04T08:35:00Z,27.4980,-83.7220,3.0,2.84,279.4,3.55,'1111122,1111122,1111122' 
COMPS,ioos:station:USF.COMPS:C12:1,2017-01-04T09:05:00Z,27.4980,-83.7220,3.0,1.93,268.11,2.54,'1111122,1111122,1111122' 
COMPS,ioos:station:USF.COMPS:C12:1,2017-01-04T09:35:00Z,27.4980,-83.7220,3.0,2.05,274.49,2.61,'1111122,1111122,1111122' 
COMPS,ioos:station:USF.COMPS:C12:1,2017-01-04T10:05:00Z,27.4980,-83.7220,3.0,3.55,294.06,4.2,'1111122,1111122,1111122' 
COMPS,ioos:station:USF.COMPS:C12:1,2017-01-04T10:35:00Z,27.4980,-83.7220,3.0,3.56,300.65,4.31,'1111122,1111122,1111122' 
COMPS,ioos:station:USF.COMPS:C12:1,2017-01-04T11:05:00Z,27.4980,-83.7220,3.0,4.1,291.34,5.31,'1111122,1111122,1111122' 
COMPS,ioos:station:USF.COMPS:C12:1,2017-01-04T11:35:00Z,27.4980,-83.7220,3.0,4.85,274.4,6.15,'1111122,1111122,1111122' 
COMPS,ioos:station:USF.COMPS:C12:1,2017-01-04T12:05:00Z,27.4980,-83.7220,3.0,6.13,310.61,7.46,'1111122,1111122,1111122' 
COMPS,ioos:station:USF.COMPS:C12:1,2017-01-04T12:35:00Z,27.4980,-83.7220,3.0,6.94,344.22,8.85,'1111122,1111122,1111122' 
COMPS,ioos:station:USF.COMPS:C12:1,2017-01-04T13:05:00Z,27.4980,-83.7220,3.0,6.91,340.98,8.17,'1111122,1111122,1111122' 
COMPS,ioos:station:USF.COMPS:C12:1,2017-01-04T13:35:00Z,27.4980,-83.7220,3.0,6.91,340.43,8.47,'1111122,1111122,1111122' 
COMPS,ioos:station:USF.COMPS:C12:1,2017-01-04T14:05:00Z,27.4980,-83.7220,3.0,5.85,355.22,7.0,'1111122,1111122,1111122' 
COMPS,ioos:station:USF.COMPS:C12:1,2017-01-04T14:35:00Z,27.4980,-83.7220,3.0,5.2,7.38,6.24,'1111122,1111122,1111122' 
COMPS,ioos:station:USF.COMPS:C12:1,2017-01-04T15:05:00Z,27.4980,-83.7220,3.0,4.65,4.12,5.82,'1111122,1111122,1111122' 
COMPS,ioos:station:USF.COMPS:C12:1,2017-01-04T15:35:00Z,27.4980,-83.7220,3.0,4.68,359.88,5.52,'1111122,1111122,1111122' 
COMPS,ioos:station:USF.COMPS:C12:1,2017-01-04T16:05:00Z,27.4980,-83.7220,3.0,4.5,5.3,5.63,'1111122,1111122,1111122' 
COMPS,ioos:station:USF.COMPS:C12:1,2017-01-04T16:35:00Z,27.4980,-83.7220,3.0,4.67,358.08,5.67,'1111122,1111122,1111122' 
COMPS,ioos:station:USF.COMPS:C12:1,2017-01-04T17:05:00Z,27.4980,-83.7220,3.0,3.86,2.65,4.86,'1111122,1111122,1111122' 
COMPS,ioos:station:USF.COMPS:C12:1,2017-01-04T17:35:00Z,27.4980,-83.7220,3.0,5.05,346.69,6.29,'1111122,1111122,1111122' 
COMPS,ioos:station:USF.COMPS:C12:1,2017-01-04T18:05:00Z,27.4980,-83.7220,3.0,3.73,13.52,5.28,'1111122,1111122,1111122' 
COMPS,ioos:station:USF.COMPS:C12:1,2017-01-04T18:35:00Z,27.4980,-83.7220,3.0,3.81,11.23,4.88,'1111122,1111122,1111122' 
COMPS,ioos:station:USF.COMPS:C12:1,2017-01-04T19:05:00Z,27.4980,-83.7220,3.0,4.21,2.36,5.25,'1111122,1111122,1111122' 
COMPS,ioos:station:USF.COMPS:C12:1,2017-01-04T19:35:00Z,27.4980,-83.7220,3.0,3.34,352.89,4.64,'1111122,1111122,1111122' 
COMPS,ioos:station:USF.COMPS:C12:1,2017-01-04T20:05:00Z,27.4980,-83.7220,3.0,3.91,0.01,5.06,'1111122,1111122,1111122' 
COMPS,ioos:station:USF.COMPS:C12:1,2017-01-04T20:35:00Z,27.4980,-83.7220,3.0,2.81,14.71,4.08,'1111122,1111122,1111122' 
COMPS,ioos:station:USF.COMPS:C12:1,2017-01-04T21:05:00Z,27.4980,-83.7220,3.0,2.72,7.75,3.7,'1111122,1111122,1111122' 
COMPS,ioos:station:USF.COMPS:C12:1,2017-01-04T21:35:00Z,27.4980,-83.7220,3.0,2.48,2.73,3.59,'1111122,1111122,1111122' 
COMPS,ioos:station:USF.COMPS:C12:1,2017-01-04T22:05:00Z,27.4980,-83.7220,3.0,2.83,356.46,3.82,'1111122,1111122,1111122' 
COMPS,ioos:station:USF.COMPS:C12:1,2017-01-04T22:35:00Z,27.4980,-83.7220,3.0,1.54,357.48,2.58,'1111122,1111122,1111122' 
COMPS,ioos:station:USF.COMPS:C12:1,2017-01-04T23:05:00Z,27.4980,-83.7220,3.0,0.66,42.79,1.38,'1111122,1111122,1111122' 
COMPS,ioos:station:USF.COMPS:C12:1,2017-01-04T23:35:00Z,27.4980,-83.7220,3.0,1.04,0.46,1.72,'1111122,1111122,1111122' 
COMPS,ioos:station:USF.COMPS:C12:1,2017-01-05T00:05:00Z,27.4980,-83.7220,3.0,1.19,345.58,1.97,'1111122,1111122,1111122' 
COMPS,ioos:station:USF.COMPS:C12:1,2017-01-05T00:35:00Z,27.4980,-83.7220,3.0,0.62,4.95,1.34,'1111122,1111122,1111122' 
COMPS,ioos:station:USF.COMPS:C12:1,2017-01-05T01:05:00Z,27.4980,-83.7220,3.0,0.66,78.09,1.41,'1111122,1111122,1111122' 
COMPS,ioos:station:USF.COMPS:C12:1,2017-01-05T01:35:00Z,27.4980,-83.7220,3.0,0.91,90.51,1.7,'1111122,1111122,1111122' 
COMPS,ioos:station:USF.COMPS:C12:1,2017-01-05T02:05:00Z,27.4980,-83.7220,3.0,1.9,157.53,2.82,'1111122,1111122,1111122' 
COMPS,ioos:station:USF.COMPS:C12:1,2017-01-05T02:35:00Z,27.4980,-83.7220,3.0,2.53,160.45,3.29,'1111122,1111122,1111122' 